"Pseudo-MPEC" for P20MiyU

Created 2019 Feb 15 22:18:10 UT using Find_Orb

Click here for an explanation of pseudo-MPECs

 
 Astrometry: 
     P20MiyU  C2019 02 09ppOAstrometry8]F2N[#N+d.-7redacted;n@3bp^B`Zt`P-7FWAF52
     P20MiyU  C2019 02 09_;gKclickCHNKSlZ:^(5q.wgFsMhere[m41%12FJMguJ6$uCJ/8.F52
     P20MiyU  C2019 02 097M%y$forlwt[jbFEAWWB\^/WbE57explanationC`G[n8.NlftlcF52

Station data:
(F52) Pan-STARRS 2, Haleakala  (N20.707384 W156.255910)  US/Hawaii.

Orbital elements:  P20MiyU
   Perihelion 2019 Mar 5.084791 +/- 41.2 TT =  2:02:05 (JD 2458547.584791)
Epoch 2019 Feb  9.0 TT = JDT 2458523.5   Earth MOID: 0.0611   Ma: 0.0426
M 341.80398195 +/- 22               (J2000 ecliptic)          AutoNEOCP
n   0.75549828 +/- 0.382            Peri.   28.53997 +/- 70
a   1.19393420 +/- 0.403            Node   135.15771 +/- 55
e   0.1339955 +/- 0.265             Incl.   14.06313 +/- 12
P   1.30/476.50d           H 25.6   G  0.15   U 12.1  SR
q 1.03395234 +/- 0.17    Q 1.35391606 +/- 29.8
From 3 observations 2019 Feb. 9 (36.1 min); mean residual 0".18
Residuals in arcseconds: 
190209 F52  .03+  .18+    190209 F52  .05-  .35-    190209 F52  .03+  .18+    

Ephemerides (geocentric):
Date (UTC) HH   RA              Dec         delta   r     elong  mag " sig PA
---- -- -- --  -------------   -----------  ------ ------ -----  --- ---- ---
2019 02 15 22  10 56 58.569   +56 13 03.68  .07146 1.0394 134.8 21.6  41d  36
2019 02 15 23  10 57 25.396   +56 19 20.65  .07156 1.0393 134.7 21.6  41d  36
2019 02 16 00  10 57 52.291   +56 25 36.09  .07166 1.0393 134.6 21.6  41d  36
2019 02 16 01  10 58 19.254   +56 31 50.00  .07176 1.0393 134.4 21.6  41d  36
2019 02 16 02  10 58 46.285   +56 38 02.38  .07185 1.0393 134.3 21.6  41d  36
2019 02 16 03  10 59 13.384   +56 44 13.23  .07195 1.0392 134.2 21.6  41d  37
2019 02 16 04  10 59 40.550   +56 50 22.55  .07205 1.0392 134.1 21.6  41d  37
2019 02 16 05  11 00 07.784   +56 56 30.34  .07215 1.0392 133.9 21.6  41d  37
2019 02 16 06  11 00 35.086   +57 02 36.61  .07225 1.0392 133.8 21.6  41d  37
2019 02 16 07  11 01 02.456   +57 08 41.35  .07235 1.0391 133.7 21.6  41d  37
2019 02 16 08  11 01 29.893   +57 14 44.58  .07245 1.0391 133.6 21.7  41d  37
2019 02 16 09  11 01 57.399   +57 20 46.27  .07255 1.0391 133.5 21.7  41d  37
2019 02 16 10  11 02 24.971   +57 26 46.45  .07265 1.0391 133.3 21.7  41d  38
2019 02 16 11  11 02 52.611   +57 32 45.11  .07276 1.0390 133.2 21.7  41d  38
2019 02 16 12  11 03 20.319   +57 38 42.25  .07286 1.0390 133.1 21.7  41d  38
2019 02 16 13  11 03 48.094   +57 44 37.87  .07296 1.0390 133.0 21.7  41d  38
2019 02 16 14  11 04 15.936   +57 50 31.97  .07306 1.0390 132.8 21.7  41d  38
2019 02 16 15  11 04 43.846   +57 56 24.57  .07317 1.0389 132.7 21.7  40d  38
2019 02 16 16  11 05 11.823   +58 02 15.65  .07327 1.0389 132.6 21.7  40d  38
2019 02 16 17  11 05 39.867   +58 08 05.22  .07337 1.0389 132.5 21.7  40d  39
2019 02 16 18  11 06 07.978   +58 13 53.28  .07348 1.0389 132.4 21.7  40d  39
2019 02 16 19  11 06 36.156   +58 19 39.83  .07358 1.0388 132.3 21.7  40d  39
2019 02 16 20  11 07 04.401   +58 25 24.87  .07368 1.0388 132.1 21.7  40d  39
2019 02 16 21  11 07 32.713   +58 31 08.42  .07379 1.0388 132.0 21.7  40d  39
2019 02 16 22  11 08 01.092   +58 36 50.46  .07389 1.0388 131.9 21.7  40d  39
2019 02 16 23  11 08 29.537   +58 42 31.00  .07400 1.0387 131.8 21.7  40d  39
2019 02 17 00  11 08 58.049   +58 48 10.04  .07410 1.0387 131.7 21.8  40d  40
2019 02 17 01  11 09 26.627   +58 53 47.58  .07421 1.0387 131.5 21.8  40d  40
2019 02 17 02  11 09 55.272   +58 59 23.63  .07432 1.0387 131.4 21.8  40d  40
2019 02 17 03  11 10 23.983   +59 04 58.19  .07442 1.0386 131.3 21.8  40d  40
2019 02 17 04  11 10 52.760   +59 10 31.26  .07453 1.0386 131.2 21.8  40d  40
2019 02 17 05  11 11 21.603   +59 16 02.84  .07464 1.0386 131.1 21.8  40d  40
2019 02 17 06  11 11 50.513   +59 21 32.93  .07474 1.0386 131.0 21.8  40d  40
2019 02 17 07  11 12 19.488   +59 27 01.53  .07485 1.0385 130.9 21.8  40d  41
2019 02 17 08  11 12 48.528   +59 32 28.66  .07496 1.0385 130.7 21.8  40d  41
2019 02 17 09  11 13 17.635   +59 37 54.30  .07507 1.0385 130.6 21.8  40d  41
2019 02 17 10  11 13 46.806   +59 43 18.47  .07517 1.0385 130.5 21.8  40d  41
2019 02 17 11  11 14 16.043   +59 48 41.16  .07528 1.0384 130.4 21.8  40d  41
2019 02 17 12  11 14 45.346   +59 54 02.38  .07539 1.0384 130.3 21.8  40d  41
2019 02 17 13  11 15 14.713   +59 59 22.13  .07550 1.0384 130.2 21.8  40d  41
2019 02 17 14  11 15 44.145   +60 04 40.41  .07561 1.0384 130.1 21.8  40d  42
2019 02 17 15  11 16 13.643   +60 09 57.22  .07572 1.0383 130.0 21.8  40d  42
2019 02 17 16  11 16 43.204   +60 15 12.57  .07583 1.0383 129.8 21.8  40d  42
2019 02 17 17  11 17 12.830   +60 20 26.45  .07594 1.0383 129.7 21.9  40d  42
2019 02 17 18  11 17 42.521   +60 25 38.88  .07605 1.0383 129.6 21.9  40d  42
2019 02 17 19  11 18 12.276   +60 30 49.86  .07616 1.0383 129.5 21.9  40d  42
2019 02 17 20  11 18 42.095   +60 35 59.37  .07627 1.0382 129.4 21.9  40d  42
2019 02 17 21  11 19 11.977   +60 41 07.44  .07639 1.0382 129.3 21.9  40d  42